Theta_e
305 306 308 306 304 304 302 302 301 301 302 302 303 304 305 306 306 307 308 308 308 308 308 308 309 311 312 312 312 311 312 313 315 314 315 315 310 313 315 315 316 319 332 348 350 345 345 345 346 348 349 350 349 350 352 353 355 357 362 361 355 356 355 353 355 351 349 357 360 358 357 357 358 355 352 352 354 353 353 352 351 350 350 351 352 351 350 350
305 305 305 304 304 303 302 302 301 302 302 303 304 305 305 307 308 309 311 310 310 309 309 309 309 312 313 313 312 311 313 314 315 315 319 316 315 315 314 316 316 326 342 349 346 345 343 342 344 345 345 348 349 350 353 353 355 358 361 358 355 359 357 353 353 350 349 355 359 358 356 356 357 355 353 356 356 354 355 354 352 352 350 351 352 351 350 350
304 304 304 305 304 302 302 302 301 302 302 304 305 305 307 308 310 310 311 311 310 310 309 310 310 312 313 312 311 312 314 314 317 322 325 322 322 319 315 316 318 331 346 347 344 344 342 343 344 343 344 347 348 349 352 354 356 358 358 358 358 358 356 354 353 352 349 351 357 358 355 355 355 353 353 356 357 355 356 355 353 353 351 350 350 350 350 349
303 303 304 304 304 303 302 301 302 302 303 304 305 307 309 309 310 309 310 310 310 309 310 310 310 312 313 311 311 314 314 319 321 322 327 324 323 323 316 316 322 333 346 347 344 343 343 344 343 343 344 347 348 350 353 354 356 357 358 360 358 354 356 355 351 350 348 350 355 357 356 356 354 352 353 356 358 357 356 354 353 353 351 350 349 349 350 349
302 303 303 304 304 303 302 301 302 302 303 304 306 308 309 310 309 308 309 309 309 309 309 309 311 312 312 311 313 315 316 320 319 320 326 323 321 324 317 317 325 335 346 346 342 342 343 343 341 343 344 347 349 351 353 352 354 358 358 359 357 355 357 355 350 350 349 351 355 356 356 355 353 352 353 355 359 358 355 353 352 351 349 349 348 348 349 349
302 302 303 304 304 304 303 302 302 303 303 305 308 309 309 309 308 308 308 308 308 308 309 309 311 312 311 312 313 315 315 312 317 318 325 324 321 324 317 317 327 339 344 343 340 340 341 340 340 343 344 347 349 351 352 351 353 358 358 357 357 357 358 356 353 353 350 351 354 355 355 353 354 354 353 354 356 355 353 352 350 350 350 350 349 348 347 346
302 303 303 304 304 304 303 302 302 303 304 306 309 309 309 308 308 308 307 307 307 307 310 311 312 311 311 312 313 315 314 312 315 319 326 324 323 325 318 317 328 341 342 339 339 338 338 338 340 342 344 346 348 350 351 351 352 355 357 356 356 355 355 355 352 351 350 350 352 352 352 353 355 356 353 353 353 351 351 351 350 351 352 351 348 346 346 346
302 302 303 304 305 304 303 302 303 303 305 307 310 310 308 308 308 308 307 308 306 307 312 313 312 311 311 314 316 314 312 313 317 320 323 323 326 326 320 322 332 339 338 336 336 336 336 337 341 341 342 344 346 349 349 349 352 353 355 354 353 352 351 351 348 348 348 349 349 350 352 353 354 354 353 353 352 351 351 350 349 350 351 349 348 347 346 347
301 302 303 304 305 305 304 302 303 304 306 309 310 310 308 308 308 308 308 307 306 310 313 313 312 311 312 316 316 310 310 317 319 319 319 324 329 326 325 330 334 337 335 333 335 336 335 336 340 338 340 341 342 348 348 347 350 350 353 353 352 351 349 348 347 347 346 346 348 350 352 352 351 351 353 353 351 351 351 350 350 350 349 349 348 347 347 346
301 302 303 304 305 305 304 303 303 305 307 309 310 309 308 308 308 308 307 307 309 314 314 312 313 311 313 316 314 307 314 320 319 316 316 321 326 326 330 334 333 335 334 331 332 334 333 335 338 335 337 339 339 344 346 346 345 344 347 349 350 349 347 346 345 344 343 343 347 349 351 351 350 351 354 353 351 352 352 351 350 350 350 350 349 348 348 348
301 301 302 304 305 305 304 303 303 306 308 309 309 309 308 308 307 307 307 309 313 315 313 312 313 312 314 316 311 308 314 318 317 315 316 322 325 324 330 336 334 333 331 329 330 332 332 334 336 331 331 334 336 339 343 343 342 341 342 343 343 342 341 340 340 341 341 343 345 347 350 350 350 351 353 352 351 352 352 353 351 351 351 350 349 348 349 350
301 301 302 304 305 305 304 303 304 306 308 308 309 309 307 307 307 307 309 312 315 314 313 313 312 312 315 315 312 310 311 314 315 315 317 321 323 321 326 334 335 331 329 328 328 329 330 333 333 326 324 330 332 331 334 339 339 339 340 341 341 338 339 338 338 339 340 342 343 346 348 349 351 351 351 351 352 352 353 353 352 352 351 349 349 348 348 349
301 301 302 303 305 305 304 304 305 307 307 306 307 307 306 306 306 308 313 316 315 314 313 313 313 313 315 314 313 313 313 316 317 314 315 317 319 322 324 331 335 330 327 326 327 327 327 331 330 324 324 328 330 325 325 333 336 336 336 339 339 336 338 339 338 339 340 341 343 345 341 344 352 349 349 352 352 353 353 354 353 352 352 350 349 348 348 348
301 301 302 303 305 305 304 304 306 306 306 305 306 306 306 306 306 311 317 316 313 313 314 314 314 315 315 315 314 315 316 320 319 313 312 315 321 325 326 330 332 327 325 325 326 325 325 329 328 324 324 325 327 323 322 328 332 334 332 333 335 331 333 339 338 338 341 341 343 345 335 339 350 348 348 352 352 354 354 354 354 353 352 350 350 348 347 348
301 301 302 304 305 305 304 305 306 306 306 306 306 306 306 306 308 315 316 313 312 314 315 315 315 317 317 317 315 315 317 318 317 312 311 315 322 327 327 327 327 322 322 323 324 325 323 326 327 324 323 322 324 324 324 326 327 330 326 325 331 328 331 339 337 337 342 341 343 344 335 339 348 346 348 352 352 354 355 355 354 353 353 351 350 349 347 347
301 301 302 303 305 306 305 305 306 306 306 306 306 306 306 307 311 317 315 311 314 315 316 317 318 318 318 315 314 315 316 313 312 311 310 311 315 325 328 325 323 321 321 321 322 325 322 324 326 323 322 321 323 325 325 322 323 327 324 321 327 328 329 336 337 337 339 342 345 343 338 341 346 346 348 351 353 354 356 356 355 353 353 352 351 349 348 348
301 301 302 304 306 306 305 305 306 306 307 307 307 306 308 309 313 318 314 311 315 316 317 319 318 319 319 314 312 313 312 310 310 310 310 310 309 321 327 323 322 321 321 319 321 325 323 323 323 322 322 321 322 325 322 317 318 323 324 322 326 329 329 331 335 336 336 340 345 345 343 343 344 347 350 351 353 354 356 356 355 354 353 353 351 350 349 349
301 302 303 304 306 306 306 306 306 307 308 308 307 307 309 311 315 319 313 310 315 317 318 319 318 320 318 313 310 310 310 309 310 308 310 311 310 320 327 322 321 321 320 319 319 323 323 322 322 322 323 320 322 323 318 316 318 321 322 321 323 327 328 330 335 336 336 339 343 345 345 344 344 347 350 352 352 354 356 356 355 354 353 353 352 350 350 350
302 303 303 305 306 307 306 306 306 307 308 309 308 307 309 311 314 316 311 308 311 314 314 313 313 313 311 310 309 310 309 308 309 308 311 313 313 322 327 322 321 320 319 319 318 320 322 322 322 322 322 320 322 321 320 322 324 324 325 323 322 324 326 331 333 333 336 338 341 344 343 344 345 347 352 352 353 354 355 356 356 355 354 353 353 351 351 350
303 304 304 305 307 307 306 306 307 307 308 309 309 308 309 310 310 311 309 307 305 305 306 306 307 308 309 310 309 309 309 309 309 308 311 314 318 326 326 321 320 319 319 319 319 319 321 322 322 321 321 322 322 321 322 325 326 327 328 327 326 324 326 331 333 331 333 334 336 341 342 343 344 346 351 352 353 355 355 357 357 356 355 354 354 352 352 352
303 304 305 306 307 307 306 307 307 308 308 309 309 309 309 310 310 310 308 307 305 304 305 305 305 307 308 308 308 308 308 309 309 309 310 313 321 327 324 321 319 318 319 319 319 318 319 320 321 321 321 322 322 322 322 323 325 326 326 325 325 325 326 331 331 329 332 333 334 340 341 342 343 345 349 352 354 355 354 357 357 356 356 355 354 354 353 352
304 304 306 307 308 307 306 307 308 308 308 309 309 309 309 309 310 310 307 306 306 304 304 305 305 306 307 307 308 307 307 309 310 311 310 313 322 325 324 323 319 318 319 318 319 318 318 319 319 320 320 320 321 322 322 322 323 325 325 324 322 325 327 329 330 329 330 331 332 338 337 338 342 344 348 352 354 355 354 355 355 356 356 355 355 354 354 353
304 304 306 308 308 307 307 307 309 309 309 309 308 309 308 309 310 309 306 306 305 305 306 307 307 308 308 308 308 307 308 309 310 311 310 314 321 322 323 324 321 320 318 317 319 318 317 318 318 318 317 318 319 320 321 322 322 323 324 323 321 325 325 324 327 328 330 329 331 337 334 336 342 345 349 352 352 354 353 353 354 355 356 356 355 354 354 354
305 304 306 309 308 308 308 307 310 310 309 308 308 309 308 309 311 309 305 305 306 306 308 307 308 308 307 307 307 307 308 308 309 310 310 312 316 318 322 325 323 322 319 317 319 318 318 319 319 318 316 317 317 318 320 320 319 320 323 323 323 326 326 324 327 328 328 329 331 332 327 328 338 344 348 351 352 353 353 353 354 354 355 354 354 354 353 353
305 304 306 309 309 309 308 308 310 311 309 309 308 309 309 309 311 309 306 307 307 308 309 307 308 307 306 307 308 306 307 309 309 310 310 310 312 314 319 322 323 324 322 318 318 317 318 319 319 318 317 317 316 317 318 318 316 317 320 324 324 327 328 328 329 327 324 324 328 329 322 323 333 340 345 350 353 354 353 354 354 354 355 354 354 354 353 353
305 304 306 309 310 309 308 309 310 310 309 309 308 309 309 310 311 309 307 309 308 309 309 308 308 307 306 308 307 306 308 310 310 310 310 312 312 312 315 321 322 324 323 320 320 319 319 320 319 319 318 318 318 317 317 318 315 314 319 323 324 327 328 328 329 325 320 321 327 328 322 321 327 334 344 351 354 355 354 354 353 354 354 353 354 353 353 352
306 304 306 309 309 309 310 310 310 309 309 309 308 308 308 309 311 309 307 309 309 308 308 307 307 307 307 308 307 307 309 310 310 311 311 313 313 311 313 318 322 322 322 321 321 321 321 321 320 320 320 319 318 317 318 320 315 314 321 324 324 326 327 329 328 324 323 323 326 327 324 320 320 328 341 349 353 356 356 355 354 354 354 353 353 352 353 352
306 304 305 308 309 309 310 309 309 309 308 308 308 308 308 309 310 308 307 308 309 307 306 306 306 306 307 307 307 308 309 309 311 312 312 312 313 311 312 315 319 322 322 322 321 321 321 321 321 321 321 320 319 319 320 320 317 319 324 325 325 327 328 329 328 325 324 324 322 324 324 321 319 325 337 345 349 354 358 357 355 354 354 353 352 352 352 352
306 304 305 308 310 309 309 308 308 308 308 307 307 307 307 308 308 308 307 308 308 307 306 306 306 306 306 307 308 308 308 309 311 311 312 313 312 312 312 313 315 318 319 321 322 323 322 322 322 321 321 321 321 321 320 320 320 321 325 326 326 328 329 330 329 325 324 324 322 322 322 321 320 322 329 338 342 348 355 357 355 354 354 353 353 351 351 351
306 304 305 308 310 309 309 308 307 308 307 307 308 306 306 308 308 308 308 307 307 307 306 306 306 305 306 307 308 308 308 309 309 310 312 313 312 311 312 312 313 315 316 318 321 322 323 322 322 322 322 323 322 321 321 320 321 323 325 326 326 328 329 329 327 324 323 324 323 321 321 321 321 321 325 333 339 344 350 353 354 355 353 354 353 351 351 351
306 304 305 308 309 309 309 308 308 308 308 307 307 305 306 308 308 309 308 306 306 306 305 306 306 306 306 307 307 308 308 309 310 312 313 312 312 311 312 313 314 315 317 316 318 320 322 323 323 323 323 323 323 323 322 322 322 323 324 324 323 323 324 324 323 323 324 324 322 321 322 320 319 322 327 334 338 340 343 347 352 354 353 354 353 351 351 350
305 304 306 309 308 308 308 307 308 308 308 307 306 305 307 308 308 308 308 306 306 306 306 306 306 305 306 306 307 307 308 309 310 312 312 312 312 310 310 311 312 315 318 316 316 318 319 322 324 323 323 324 324 323 323 323 323 323 322 321 320 321 323 323 322 322 322 322 321 322 322 320 320 324 330 334 334 336 339 341 346 350 352 353 352 352 351 350
305 305 308 309 308 307 307 307 307 308 308 306 306 307 307 307 309 309 307 306 306 306 305 306 305 305 306 306 307 307 308 309 310 312 312 312 313 311 310 309 309 313 317 316 316 316 318 321 322 323 324 323 323 322 321 323 324 322 320 318 319 321 323 324 322 322 321 319 319 321 322 319 319 325 331 332 330 332 336 338 342 346 350 352 352 352 350 350
304 306 309 309 307 307 306 306 307 308 307 306 307 308 307 307 309 308 306 306 306 305 305 305 305 305 306 306 306 307 308 308 309 311 312 312 313 312 310 309 309 311 314 316 316 315 317 319 320 322 321 320 323 323 322 324 325 325 324 322 319 319 321 322 321 320 320 318 318 320 321 319 318 325 331 331 330 331 332 335 341 344 348 350 351 351 350 350
305 307 309 308 307 307 306 307 308 307 307 307 308 309 308 308 308 306 306 306 305 305 305 304 305 306 306 306 306 307 308 308 308 310 312 312 312 311 310 309 309 310 312 316 318 317 318 318 317 318 316 317 322 322 323 325 323 325 327 324 320 320 321 320 318 319 318 316 317 318 319 321 323 328 330 328 330 331 330 332 337 342 345 346 348 350 350 350
305 308 310 309 307 307 307 307 308 307 307 308 309 309 308 307 306 305 306 306 305 304 305 305 305 306 305 306 306 306 307 307 308 309 311 311 311 311 310 309 309 309 311 314 316 317 318 318 317 317 317 319 320 319 322 323 321 324 324 321 324 326 324 318 317 320 318 316 318 317 317 320 322 326 329 328 328 329 331 332 332 337 343 346 347 348 349 350
305 307 310 308 307 307 307 307 307 307 309 311 310 309 307 306 306 306 306 306 304 304 305 305 305 305 305 306 306 306 307 307 307 309 310 311 311 310 309 309 309 308 309 311 313 314 316 318 318 318 320 319 318 318 320 321 323 323 321 322 326 328 326 321 319 321 319 317 318 315 314 315 316 321 329 331 329 328 330 331 331 335 341 344 345 347 349 350
305 306 309 308 306 307 307 307 306 307 310 313 311 309 307 307 306 306 306 306 304 304 305 306 305 305 305 306 306 306 307 307 307 308 309 311 312 310 309 309 308 308 308 310 312 313 314 319 319 318 320 319 317 319 321 321 324 324 323 326 326 323 322 322 321 322 320 319 319 316 314 314 314 318 325 329 331 330 330 332 332 334 339 342 343 346 349 349
304 307 310 308 307 307 307 307 307 309 312 311 311 310 307 307 307 307 306 306 304 304 305 305 305 305 306 306 306 306 307 307 307 308 309 310 310 310 309 309 308 308 309 309 312 313 315 320 322 318 317 318 318 320 320 321 324 325 325 327 326 322 322 322 322 321 320 321 320 318 315 314 316 322 324 328 332 331 332 335 335 334 338 341 342 345 348 349
305 309 310 307 307 307 307 308 309 310 310 309 309 309 307 307 307 307 307 306 305 305 305 305 305 306 306 306 306 306 307 308 307 308 309 309 309 310 309 309 308 309 309 309 311 313 315 319 321 320 317 316 318 320 319 319 322 322 322 323 324 323 323 324 323 320 319 320 320 320 317 314 319 328 327 328 332 332 333 337 338 335 336 340 343 345 347 349
306 309 309 307 307 307 307 309 310 309 309 308 309 308 309 309 308 307 307 306 306 305 305 305 306 306 306 306 306 306 307 309 309 308 308 308 309 310 310 308 308 309 309 310 312 314 316 318 319 320 318 316 318 319 317 317 317 318 319 320 320 321 321 322 322 320 319 319 319 320 318 316 322 331 329 326 330 332 333 335 337 336 335 338 343 345 347 349
307 309 309 306 306 307 308 310 310 309 309 309 309 308 309 309 307 307 307 307 307 306 305 306 306 306 306 306 306 306 306 308 309 309 308 308 308 309 309 308 308 309 309 311 313 314 316 318 318 318 317 317 317 317 316 316 315 316 318 319 320 321 319 320 322 321 319 319 318 318 317 319 326 334 332 329 330 329 330 333 334 334 335 337 341 343 346 350
306 308 308 306 306 307 308 309 310 311 310 309 308 308 308 308 307 307 307 308 308 307 306 306 306 306 307 306 306 306 306 307 309 310 309 309 309 309 309 308 308 309 310 312 315 314 314 316 317 318 318 317 316 317 317 316 317 318 318 317 318 319 318 318 321 321 320 319 319 319 319 321 327 334 333 330 330 328 326 327 328 331 334 336 339 342 346 349
305 305 306 307 307 308 309 309 309 311 310 309 309 308 308 307 307 307 308 308 308 307 306 307 307 307 307 306 306 306 306 307 309 309 309 309 310 309 309 308 308 308 310 313 315 313 313 315 316 319 320 319 319 320 319 318 317 317 317 316 316 316 317 318 321 321 320 318 319 320 319 320 328 340 336 331 331 329 326 325 324 326 330 332 335 339 346 351
305 307 307 306 306 307 308 308 308 310 310 310 309 309 309 308 307 307 307 307 308 307 307 307 307 307 308 307 307 307 306 306 307 308 309 309 309 310 309 309 308 308 309 313 313 311 312 314 315 317 320 322 323 322 319 318 317 316 316 316 315 315 316 318 322 322 320 320 319 319 318 321 330 339 336 332 332 331 331 330 326 326 328 332 336 339 342 350
306 308 308 307 306 306 306 306 307 308 309 310 310 309 309 309 308 307 307 307 308 307 307 308 307 308 308 308 308 308 307 306 307 308 309 308 308 309 309 309 309 308 310 312 311 309 312 314 314 315 317 318 319 317 314 314 316 316 316 316 315 315 315 318 322 322 322 322 319 319 322 321 323 332 334 332 332 334 336 335 331 332 331 333 340 345 343 345
306 307 307 307 308 307 307 306 306 307 308 308 310 310 309 309 309 308 308 308 308 307 307 308 308 309 309 309 309 309 307 308 308 307 308 308 308 308 308 308 308 309 311 311 309 309 312 313 313 314 314 313 314 314 312 313 315 315 315 315 315 315 316 317 321 322 324 323 319 325 332 324 321 329 332 331 335 336 338 336 333 337 336 333 339 344 342 342
306 306 304 305 307 308 308 307 307 307 307 308 310 309 309 309 309 309 309 308 308 307 308 309 309 309 309 309 309 309 309 309 308 308 309 309 308 308 307 308 308 309 311 309 308 309 311 312 312 312 312 312 312 312 312 312 314 314 314 315 315 316 316 318 320 320 324 325 324 330 337 330 326 327 327 334 338 335 333 333 330 330 330 330 333 335 335 337
305 306 305 305 306 307 307 307 307 307 308 309 310 309 309 309 309 309 308 308 309 308 308 310 309 308 309 309 309 310 310 309 309 309 309 309 308 308 308 308 308 309 310 309 308 309 310 312 313 312 312 312 312 312 312 312 314 314 314 314 315 316 316 319 323 324 326 327 326 329 334 332 329 330 334 341 342 338 336 336 337 339 339 337 335 331 328 330
306 306 306 306 307 308 308 307 307 308 308 309 310 309 308 308 308 308 308 309 310 309 308 309 309 308 308 309 309 310 309 308 309 309 309 309 309 309 309 309 308 309 310 309 309 309 309 312 313 312 313 314 313 313 313 313 314 314 314 315 316 317 319 324 331 336 335 332 330 330 331 331 333 338 343 345 344 347 350 349 352 356 354 352 349 341 334 329
306 306 306 307 309 309 308 307 307 308 308 308 309 308 308 308 308 308 308 309 309 309 309 308 308 308 308 309 309 309 309 308 308 308 308 309 309 309 309 309 308 309 310 309 309 309 309 310 311 311 313 315 313 313 313 313 314 315 316 317 319 322 327 332 337 340 340 338 338 335 332 334 338 340 345 349 350 355 359 357 357 357 356 356 357 354 349 340
306 306 306 307 309 309 308 307 307 308 308 308 308 308 307 308 308 308 309 309 308 308 308 308 308 309 309 310 309 309 308 308 308 308 308 308 308 308 308 308 308 308 309 309 309 309 309 309 309 311 313 315 313 313 314 315 317 319 319 319 322 327 331 334 338 339 338 337 339 338 335 337 339 339 344 352 356 357 358 357 356 357 357 357 357 357 357 351
Wind_Speed
33 31 29 30 29 28 27 27 26 26 25 24 22 21 19 18 17 17 16 14 13 13 14 15 15 15 14 12 11 11 10 9 8 7 11 19 20 15 11 8 16 22 26 27 25 23 18 15 17 16 14 10 6 6 8 6 4 3 3 3 4 3 2 1 1 1 2 3 10 12 13 11 10 9 6 7 8 10 10 6 7 6 7 10 16 25 31 31
34 33 32 31 30 29 28 27 27 26 26 25 23 21 20 18 18 18 17 15 13 12 13 14 15 14 13 11 10 10 8 7 8 11 15 19 18 15 15 12 19 29 30 29 29 28 20 16 17 16 11 8 5 6 8 6 5 5 3 4 4 3 1 1 2 3 3 1 8 11 12 11 11 11 9 9 10 12 10 7 8 10 11 14 21 28 30 31
35 34 34 32 31 30 28 27 27 26 26 24 23 22 20 19 18 18 17 15 13 12 12 13 14 13 12 10 8 8 6 5 6 10 7 14 14 15 17 15 24 33 31 29 31 29 25 24 23 18 10 7 6 7 8 7 6 6 5 5 4 3 3 3 4 5 4 2 8 11 10 9 10 11 9 9 12 12 10 9 10 11 13 16 21 27 30 30
36 35 34 34 33 31 29 28 26 26 25 23 22 22 20 20 19 18 17 15 13 12 11 12 12 12 10 8 6 5 5 4 2 3 6 16 17 7 17 20 28 34 27 24 22 17 19 25 22 15 10 7 6 7 9 8 6 5 6 6 1 1 3 1 2 4 3 5 8 11 10 9 10 9 9 11 11 9 11 12 13 15 18 19 21 25 30 30
37 36 35 35 34 32 30 28 27 26 24 22 21 22 21 19 19 19 17 15 14 12 12 12 11 10 8 6 3 3 3 2 1 4 12 17 16 5 17 25 31 33 25 20 16 11 15 21 16 10 7 6 7 7 8 10 7 4 7 8 5 3 3 1 3 7 4 2 6 10 10 9 9 9 10 14 11 6 9 13 14 17 20 22 24 25 27 28
38 38 37 36 35 33 31 28 27 26 24 21 20 21 20 19 19 19 17 15 15 14 14 12 10 8 6 4 2 2 3 1 3 10 18 14 10 4 17 28 32 33 24 20 17 14 16 17 13 9 6 5 10 9 6 11 9 6 7 8 8 7 7 5 4 6 4 1 6 9 8 8 10 9 10 15 9 2 6 13 15 18 21 25 26 26 25 25
40 40 39 37 35 34 32 29 27 25 23 20 19 20 20 20 19 19 18 16 16 16 14 10 7 5 4 3 1 2 1 5 8 15 19 10 5 1 20 28 33 33 24 22 19 16 16 16 12 9 8 6 9 10 6 9 11 9 8 7 8 8 9 9 8 7 4 4 6 7 6 9 13 8 9 14 6 6 10 15 17 18 22 24 24 24 24 25
42 42 41 39 36 34 32 30 28 26 23 19 17 18 19 20 20 20 18 18 18 15 9 5 4 3 2 3 0 2 2 4 8 18 22 12 3 9 24 27 33 32 24 24 22 19 17 17 15 9 9 6 6 10 6 8 11 12 11 7 6 7 8 8 7 7 5 4 4 8 8 10 12 6 7 13 6 9 14 16 18 19 20 21 21 22 22 23
43 43 42 40 37 34 32 30 28 25 22 18 17 18 19 19 20 20 18 18 17 9 4 3 2 1 1 2 1 4 1 3 8 18 23 16 4 17 27 27 35 29 23 25 21 21 16 14 16 10 9 7 6 10 8 7 7 10 13 8 7 8 8 8 9 9 7 4 5 9 10 10 10 5 5 11 9 11 16 17 19 19 19 19 19 21 21 22
44 44 43 41 38 35 32 30 28 24 21 18 18 18 19 20 21 20 18 18 11 2 4 4 2 2 2 2 1 4 1 4 4 16 20 14 5 19 24 26 36 29 21 22 20 21 15 13 14 6 5 7 7 8 9 9 3 4 9 10 11 12 12 11 11 11 9 5 7 10 10 10 10 7 6 9 12 14 17 17 19 19 19 19 18 18 19 21
44 44 44 42 39 36 33 30 27 23 20 19 18 19 20 22 21 18 16 12 3 3 4 4 2 2 3 2 3 4 3 3 9 18 17 8 3 16 22 25 33 28 23 20 20 23 15 13 14 5 3 6 6 7 8 9 5 4 5 7 10 11 11 11 11 11 8 5 9 11 9 8 10 10 9 10 15 16 17 18 19 19 17 18 18 17 16 18
43 44 44 43 39 36 33 30 27 22 19 20 19 19 22 23 20 15 11 5 4 4 4 3 1 3 3 2 5 6 4 8 10 14 14 5 4 10 19 27 25 21 24 20 20 22 13 14 17 8 3 6 7 4 6 9 7 7 6 7 8 9 11 11 10 10 6 5 7 9 6 6 11 14 11 12 16 16 17 17 18 17 16 16 17 15 14 16
44 43 43 43 39 36 33 30 26 22 20 22 20 21 24 21 16 10 5 4 6 6 4 2 1 4 1 2 5 5 6 8 5 13 16 8 3 8 15 26 22 12 15 15 18 19 12 16 18 9 3 5 6 1 2 8 8 7 6 7 7 7 8 6 8 10 9 6 7 9 4 5 12 15 11 14 17 17 16 16 16 15 14 15 15 14 14 17
44 43 43 42 40 36 33 29 25 22 23 22 21 23 23 17 11 5 4 6 9 8 3 2 3 5 1 4 5 5 8 7 4 13 15 9 3 5 10 21 20 8 8 9 13 14 11 14 11 4 2 2 2 1 1 4 6 6 5 5 5 5 4 1 3 8 9 6 10 11 6 5 9 12 13 15 18 18 16 16 16 15 14 14 15 15 15 17
44 44 43 41 40 36 32 27 23 23 23 21 22 24 18 11 7 3 4 10 12 7 2 3 4 3 1 4 4 4 8 6 8 16 12 5 3 4 9 18 16 7 9 9 12 12 9 12 7 5 4 1 2 3 2 3 4 5 4 5 6 6 5 2 3 7 7 4 12 12 5 5 6 9 15 15 18 19 16 17 16 16 16 16 15 15 15 16
44 44 44 41 39 36 31 25 22 23 22 21 23 19 13 9 4 3 4 13 12 4 1 2 3 1 1 2 6 3 4 7 15 19 12 6 4 4 11 17 12 7 9 8 13 12 6 10 8 4 3 3 4 4 2 3 4 5 6 6 6 7 7 4 3 8 9 5 11 13 6 5 3 7 15 16 19 19 16 16 17 17 17 16 15 14 15 15
43 44 43 41 38 36 30 22 20 22 22 23 20 13 12 7 3 3 4 13 8 0 1 2 3 2 2 4 7 5 7 14 19 19 16 13 6 8 14 15 9 9 9 7 12 13 6 7 5 3 4 5 5 4 5 7 6 6 6 6 5 6 7 5 2 5 10 8 10 13 11 8 2 7 14 17 19 19 16 17 18 17 16 16 14 14 15 15
43 44 43 41 38 34 28 20 18 20 21 24 17 10 14 7 3 1 5 11 5 4 2 3 2 2 2 7 10 10 15 20 20 18 14 8 5 14 16 13 10 12 11 6 9 11 7 6 4 5 6 7 6 7 8 7 6 7 7 6 5 6 7 7 3 2 6 9 10 12 13 12 6 6 12 17 19 19 17 17 17 17 16 16 15 15 16 16
43 44 43 41 37 32 25 18 16 17 20 24 14 6 12 8 2 0 6 11 3 2 2 2 2 1 4 10 12 15 19 17 14 11 5 4 11 16 14 11 12 14 11 7 8 9 7 5 6 7 8 11 11 12 12 2 2 5 8 6 6 7 7 6 5 1 2 5 9 11 12 12 9 8 11 15 18 18 17 15 14 14 15 15 14 14 16 17
43 44 43 40 36 30 22 15 15 15 17 24 16 3 7 8 1 1 7 9 1 0 4 4 1 2 7 9 12 19 17 9 5 3 1 5 14 15 11 10 11 10 9 10 9 8 9 7 9 11 11 14 14 14 13 4 3 2 6 7 7 8 8 5 4 3 2 4 7 9 12 14 12 10 12 14 16 16 15 15 14 14 14 15 16 16 17 17
43 44 42 39 34 26 18 12 13 14 13 21 19 7 3 6 4 3 6 6 2 2 6 6 3 6 9 10 13 15 9 3 5 4 4 4 14 13 9 10 11 9 9 9 8 6 8 9 12 14 10 10 11 11 10 9 8 5 3 5 6 8 7 5 4 4 3 4 6 7 10 13 13 12 11 12 15 16 16 16 16 17 16 15 17 18 17 15
43 43 40 38 32 23 15 9 13 13 11 17 18 9 4 4 5 5 4 5 4 2 4 5 3 6 9 10 8 6 1 3 6 5 9 3 10 9 8 10 10 9 10 9 7 6 8 11 14 12 8 7 8 10 11 12 13 10 5 4 5 4 4 6 5 4 4 4 5 6 9 11 11 12 11 13 15 16 17 19 18 20 19 16 17 18 16 15
44 42 39 36 28 21 11 7 13 14 11 12 12 8 4 5 10 5 3 3 5 3 2 2 1 4 7 4 3 4 2 3 4 6 12 3 7 5 6 11 10 9 11 12 10 9 7 10 11 10 9 11 10 11 13 12 11 11 8 6 6 3 2 5 3 1 3 5 6 6 7 8 8 8 10 14 16 13 15 18 17 18 19 18 18 17 17 19
43 41 37 32 25 19 8 5 13 15 11 7 8 9 7 11 13 3 4 2 3 3 1 1 2 2 7 6 4 5 3 1 2 7 11 4 1 1 5 10 10 9 11 15 15 12 7 4 9 13 12 14 13 12 14 11 9 12 13 11 8 4 5 5 2 6 6 5 6 6 7 7 7 8 9 12 14 12 12 14 14 14 14 14 14 16 17 19
41 39 34 29 23 17 6 4 11 16 10 3 4 11 17 19 11 3 3 1 1 1 1 1 1 2 9 8 4 5 3 2 2 4 6 5 4 2 3 5 8 8 12 16 14 12 9 4 11 17 16 16 15 13 14 12 8 10 14 15 11 7 7 8 7 7 6 4 3 3 7 7 5 9 11 9 11 13 12 14 16 14 13 13 14 16 17 17
40 37 32 25 22 16 5 2 10 15 7 2 7 19 22 18 6 5 3 1 1 1 1 2 2 5 11 8 6 4 2 0 4 5 4 6 5 4 4 3 6 7 10 12 8 7 8 8 11 14 16 18 16 13 14 14 9 8 10 13 14 10 9 10 9 6 5 4 1 2 7 6 3 7 10 10 13 16 14 15 17 15 14 15 15 15 16 17
39 36 29 22 19 16 6 0 9 10 3 6 18 23 21 14 2 7 2 2 1 2 3 4 3 6 10 9 10 4 2 6 8 4 8 10 5 4 5 4 6 6 7 8 5 5 8 11 11 12 13 15 14 12 14 16 11 7 6 11 14 13 12 12 10 7 6 6 7 7 6 5 6 5 6 10 13 15 15 16 17 15 16 18 17 17 17 18
38 35 27 18 14 13 7 4 7 5 6 16 22 22 18 6 7 6 2 2 1 2 1 3 3 6 8 8 10 5 1 8 6 5 14 12 3 2 7 6 7 8 9 10 8 5 9 14 14 13 12 10 11 12 13 17 13 7 7 10 11 13 14 12 9 8 6 6 9 8 4 4 8 4 3 8 13 13 15 18 17 16 18 19 18 19 19 19
38 35 25 16 10 9 9 6 5 9 18 23 21 19 9 5 8 2 2 2 1 2 1 3 3 6 8 6 7 8 4 5 4 8 12 7 4 1 4 4 3 6 9 12 12 5 5 11 15 14 12 9 11 12 11 17 13 5 8 9 10 11 11 11 9 8 7 7 11 10 7 6 9 6 5 7 9 12 13 15 16 17 18 19 18 19 19 17
38 34 22 13 8 10 12 8 9 18 24 23 19 12 2 7 2 2 1 2 1 2 1 4 4 6 9 5 5 9 7 6 6 8 7 6 7 6 2 2 2 3 6 8 12 10 5 7 12 13 12 9 10 10 11 16 14 7 9 9 8 9 8 8 7 5 7 9 12 13 11 8 9 8 8 7 7 10 11 11 13 16 17 17 17 17 17 17
38 32 17 8 8 11 10 9 17 25 24 22 16 4 5 2 1 3 1 1 1 2 1 4 6 5 8 7 5 9 8 7 9 9 8 7 8 10 6 3 3 2 6 7 8 10 9 8 8 7 9 11 10 10 10 15 14 10 9 8 6 5 5 6 5 5 9 10 9 13 12 10 11 8 7 7 8 10 11 11 12 16 17 17 16 16 17 18
37 29 11 5 9 10 9 14 24 26 23 21 10 2 3 1 2 2 1 1 1 2 2 3 6 5 5 5 7 10 7 7 10 8 7 7 7 9 7 5 5 4 8 7 5 7 10 11 6 3 9 14 13 10 8 12 13 11 10 9 8 5 6 8 7 7 11 8 4 8 10 11 12 10 6 7 9 11 11 11 12 15 17 16 17 17 17 16
36 24 5 6 11 11 17 24 26 24 23 16 3 2 1 2 2 1 2 2 1 3 2 2 5 5 4 4 7 9 5 6 10 8 5 5 5 6 6 9 9 4 4 3 3 6 8 9 9 8 7 9 12 12 8 8 11 12 11 10 9 7 7 9 9 7 9 6 4 6 6 8 9 7 9 13 14 13 11 11 12 13 15 16 17 17 16 17
34 17 3 9 14 15 25 28 23 21 20 10 1 2 1 3 0 2 2 3 2 2 2 2 3 4 6 6 6 7 4 6 9 8 5 4 4 4 5 10 12 7 4 2 3 5 7 7 7 8 3 1 8 12 10 9 10 11 12 11 10 9 8 8 7 7 7 4 6 9 6 7 5 2 5 11 15 13 12 13 12 11 13 13 13 15 16 17
30 11 3 11 18 22 28 24 19 17 13 5 0 1 1 1 1 1 1 2 1 2 2 2 2 3 5 5 5 6 3 4 8 7 6 5 4 5 4 7 11 9 4 2 1 1 5 3 1 1 2 1 2 4 6 9 11 10 11 11 11 9 7 5 4 5 5 5 6 9 5 4 1 4 4 6 9 10 13 15 15 14 13 11 11 13 15 16
27 8 1 13 22 27 28 19 14 12 6 2 2 3 1 1 1 1 1 2 1 1 1 1 3 2 3 3 4 7 4 4 7 4 3 5 4 6 5 5 8 9 6 3 2 1 3 2 4 4 2 4 3 6 4 7 7 7 10 12 9 9 9 7 5 2 3 8 6 7 9 5 2 9 10 8 7 8 11 14 16 16 13 12 11 13 15 16
26 12 2 12 26 30 24 15 10 5 1 0 3 3 1 2 2 2 2 3 2 1 1 1 2 2 2 2 3 7 6 3 5 4 2 2 3 6 6 5 6 8 7 5 2 1 2 3 2 2 3 2 5 6 6 9 6 5 9 10 8 8 10 8 6 5 6 9 5 6 12 10 6 7 9 13 13 10 10 12 14 14 12 13 13 13 15 17
20 12 3 12 30 30 19 12 6 1 2 2 5 4 1 1 2 2 3 3 1 1 1 1 2 1 1 2 2 5 5 3 4 4 2 2 2 4 6 5 7 9 9 6 3 1 3 4 1 1 2 4 6 4 6 9 10 7 6 9 9 8 10 8 7 7 9 9 5 7 11 11 10 7 5 12 16 14 11 10 12 13 12 13 14 14 16 16
12 6 0 16 33 26 14 9 5 2 2 3 4 4 1 1 3 4 5 3 1 1 1 2 1 1 1 1 1 2 3 3 3 3 2 2 2 4 5 5 6 10 11 7 4 2 3 4 2 2 2 5 2 3 7 9 11 7 4 9 9 6 7 9 8 6 7 8 6 7 9 9 8 8 8 10 12 14 13 10 10 12 13 14 14 13 14 15
5 1 1 20 34 22 10 8 6 3 3 3 2 2 2 1 3 5 7 4 1 0 1 2 1 1 1 1 0 1 2 1 2 2 2 3 2 3 5 6 6 11 12 8 5 3 2 3 2 0 2 4 3 4 4 2 3 6 6 9 10 6 4 7 9 7 7 7 6 6 8 7 4 5 10 11 9 11 12 10 9 11 13 15 14 13 14 14
3 0 2 23 32 18 7 7 6 4 2 3 2 2 3 3 4 7 8 7 3 1 2 2 2 1 1 1 0 1 1 0 1 1 1 2 2 1 4 6 7 9 9 6 3 3 3 2 3 3 2 4 2 3 1 2 3 3 4 4 4 5 6 8 10 10 9 8 6 6 8 7 2 3 7 11 10 10 11 12 11 10 12 14 13 14 15 14
3 0 5 25 29 13 5 5 3 3 2 2 2 1 3 4 4 6 8 7 5 3 3 3 3 2 1 0 0 1 1 0 1 1 0 1 3 2 3 6 9 9 6 4 3 4 5 3 4 5 4 6 6 4 3 4 3 2 1 2 4 3 3 7 8 6 9 10 8 7 10 6 3 3 4 8 9 8 7 8 9 10 11 12 13 15 15 14
3 1 7 25 24 6 3 5 2 2 3 2 2 1 2 4 4 5 7 7 5 3 3 3 2 2 2 1 1 1 3 1 1 1 1 1 2 1 2 5 9 8 5 4 4 4 5 3 3 4 4 6 6 0 3 2 5 5 1 4 4 3 3 4 5 2 4 10 9 8 10 6 3 4 6 8 7 6 7 7 8 9 7 7 10 12 13 13
3 3 4 20 22 8 3 3 2 2 3 2 3 4 3 4 6 6 6 6 6 3 2 3 3 3 3 3 2 2 3 2 1 1 2 2 1 1 0 4 7 7 4 4 5 4 3 2 2 3 4 5 5 4 4 4 4 2 1 2 3 4 7 6 4 3 3 8 11 10 9 7 3 4 6 11 10 7 8 8 7 9 8 6 5 6 8 9
3 1 2 11 19 13 5 3 2 2 3 3 4 5 4 3 5 7 5 6 6 4 2 3 3 4 4 3 2 2 3 2 1 1 1 2 1 0 1 3 5 6 5 6 7 5 4 2 2 3 5 7 5 3 3 1 2 2 0 2 4 5 6 4 2 3 4 5 9 10 7 6 4 3 6 12 12 9 8 6 6 7 8 7 5 4 6 6
2 2 2 4 8 8 5 4 4 3 3 3 3 4 6 4 3 6 5 5 7 6 4 4 3 3 5 5 3 2 2 2 2 2 3 4 3 1 1 3 6 7 8 8 8 5 3 3 4 6 6 5 1 1 1 2 3 3 4 6 5 3 3 3 1 3 1 2 6 6 4 7 6 4 7 10 11 10 6 5 6 6 6 6 6 6 7 8
1 1 3 3 3 4 4 4 5 4 2 2 1 3 5 5 4 4 4 4 6 6 3 4 5 4 4 5 3 2 2 3 3 4 4 4 3 4 5 6 7 8 8 7 6 4 3 4 6 8 10 10 7 4 4 5 6 6 8 9 7 5 3 3 5 4 3 4 5 1 2 6 5 3 5 6 6 7 6 4 4 3 3 4 5 5 6 9
2 1 1 2 2 3 3 4 6 5 2 1 1 3 4 5 6 5 3 3 4 5 2 2 5 6 5 4 2 1 2 3 3 3 3 2 4 6 7 6 6 6 6 5 5 4 3 5 5 7 10 12 9 7 6 7 8 8 9 10 10 8 6 6 9 10 7 6 5 6 7 5 3 7 11 11 9 9 10 8 6 5 5 5 5 7 8 8
2 1 1 1 1 2 2 4 5 4 3 2 2 4 4 5 6 5 3 3 3 4 3 2 4 6 5 3 1 1 2 3 3 2 2 4 5 6 6 6 5 3 3 4 4 3 3 4 4 6 10 11 10 8 8 9 10 10 10 11 11 11 9 9 10 11 11 11 10 13 15 10 7 9 11 13 13 11 10 9 8 7 6 6 6 8 11 12
1 1 1 1 1 1 1 3 3 3 4 3 2 3 4 4 6 6 4 3 2 2 3 4 5 7 6 3 2 3 3 4 5 5 4 6 6 4 4 5 3 1 2 3 3 3 2 3 5 7 8 9 9 8 9 10 11 10 11 12 11 11 9 8 7 6 7 9 11 14 15 10 6 6 10 13 13 9 8 8 8 7 7 8 8 10 12 14
2 1 2 1 2 3 3 3 3 1 2 3 3 3 3 3 6 7 5 2 2 2 4 7 8 7 5 4 4 5 4 4 7 9 9 9 9 6 4 5 5 3 4 4 4 3 3 4 6 6 6 6 4 4 6 7 9 12 14 12 10 8 5 3 2 2 2 4 8 9 7 4 4 9 12 12 10 7 6 6 7 7 8 9 10 11 12 13
1 1 1 1 2 3 3 3 2 2 2 3 4 3 2 3 5 7 4 1 1 2 3 6 9 7 5 5 5 5 6 7 10 12 10 10 11 10 9 10 11 9 7 6 5 4 4 5 5 4 5 5 2 2 4 5 8 11 9 8 9 7 4 4 3 4 5 3 6 6 4 6 9 11 12 11 8 6 4 6 7 8 10 11 12 13 13 14
Wind_Direction
11 6 1 0 359 357 358 358 357 357 355 355 353 353 352 350 348 344 343 340 337 328 321 315 311 312 310 311 310 312 312 302 294 264 247 264 267 244 241 222 179 162 153 151 147 149 151 159 162 162 164 167 187 187 194 214 216 210 209 234 243 231 243 239 218 346 2 147 159 168 178 168 152 162 149 139 142 137 146 135 117 98 81 116 130 138 147 152
10 7 4 2 360 359 359 358 358 357 356 354 353 352 351 350 348 346 344 340 336 328 321 316 312 312 310 311 312 315 310 295 281 259 265 287 288 252 230 210 172 156 153 157 157 155 156 163 165 166 170 170 181 180 187 193 196 210 209 228 234 211 200 284 310 324 326 159 162 173 182 177 161 157 159 156 150 147 144 136 125 105 105 121 133 143 148 153
8 8 5 2 1 1 359 358 358 356 355 354 352 351 350 350 349 348 344 338 335 327 322 316 314 313 309 314 317 322 307 292 277 256 310 353 322 255 221 192 172 162 161 169 165 164 163 162 163 164 170 179 184 185 189 186 192 208 218 236 236 242 261 271 286 286 282 228 171 175 179 182 164 156 170 163 154 164 164 153 149 137 136 140 145 149 151 157
8 7 5 3 1 0 360 358 357 356 355 353 352 350 350 350 349 349 344 339 336 329 323 315 313 310 309 324 329 334 301 267 285 264 2 5 353 274 206 180 171 169 168 172 166 163 155 152 157 159 165 178 185 192 196 191 187 195 211 232 240 270 261 243 345 336 287 229 184 170 173 182 168 164 175 159 155 183 189 176 166 155 149 150 153 154 156 161
9 8 6 3 1 359 359 358 356 356 354 353 351 349 349 349 348 348 345 341 341 333 325 315 310 308 309 337 358 346 295 239 73 9 347 335 344 325 193 172 172 173 165 167 160 146 143 147 154 157 168 173 175 192 206 202 202 215 223 240 255 278 290 325 32 22 21 208 178 169 176 174 165 178 181 171 176 196 194 183 164 152 151 154 157 157 160 164
10 8 6 3 1 358 358 357 355 355 354 353 350 349 348 346 345 345 344 341 340 332 326 319 311 307 317 356 32 356 283 277 15 351 343 328 337 338 178 168 174 172 159 159 155 150 151 152 158 161 175 175 178 190 201 201 209 234 236 246 253 263 277 284 317 343 1 178 180 178 179 161 168 192 191 190 197 119 149 162 150 149 153 155 157 160 164 168
10 8 6 4 1 358 356 356 355 354 354 352 349 349 346 343 341 340 339 336 334 328 327 326 318 311 338 24 93 48 259 274 340 358 356 344 329 220 166 166 173 168 158 159 157 158 156 161 171 162 170 172 185 196 187 195 210 233 246 257 262 266 268 279 297 307 305 237 207 184 179 178 188 197 192 201 202 102 130 143 142 146 152 155 158 164 167 169
10 8 7 3 1 358 355 354 354 353 352 352 350 347 342 340 337 334 334 331 327 325 333 345 339 327 24 51 56 323 255 264 353 16 16 15 350 164 157 162 172 167 163 167 165 167 160 166 173 159 177 176 181 196 185 191 212 230 243 262 269 269 270 281 293 297 294 260 215 188 196 199 196 194 196 205 190 129 136 136 141 145 150 158 163 165 167 169
9 8 6 3 1 358 356 354 353 352 352 352 350 344 338 337 332 331 331 328 325 324 5 39 19 41 74 61 327 307 257 133 47 25 19 20 52 159 156 162 171 167 167 172 168 168 164 171 175 164 179 175 174 193 192 198 212 225 233 253 268 272 278 285 288 288 291 267 200 195 209 206 194 199 219 207 178 138 138 141 145 150 155 162 167 168 168 170
8 7 5 3 1 358 356 354 353 353 352 352 349 339 335 333 329 330 330 326 326 353 64 66 67 80 90 108 305 319 195 150 37 2 1 12 83 160 166 167 170 169 168 172 172 173 176 178 172 155 165 174 181 187 191 203 217 214 229 250 262 273 278 279 281 276 283 266 209 208 221 209 189 200 222 188 163 145 142 149 152 156 162 165 169 170 170 172
7 6 4 3 1 358 356 355 354 353 353 352 345 336 331 329 329 332 330 326 347 81 68 72 79 135 129 128 273 281 202 241 326 342 346 357 119 169 181 176 171 172 168 170 179 181 182 169 155 140 165 168 176 188 196 211 248 250 248 266 260 270 274 267 269 266 269 253 211 213 230 210 184 206 219 168 154 153 149 154 160 163 166 167 170 170 173 175
6 5 3 2 0 358 356 355 354 353 353 349 341 334 329 327 333 336 333 347 81 55 57 69 78 173 167 184 242 254 269 302 323 354 358 330 236 202 194 184 178 177 170 171 184 185 181 166 164 168 167 152 160 186 211 211 233 249 264 281 275 279 277 261 252 252 242 229 203 201 230 212 198 217 209 160 156 159 155 159 165 167 167 168 170 171 175 177
5 4 3 1 359 358 356 354 353 353 350 345 341 334 328 329 340 346 359 57 51 19 33 34 219 179 163 249 255 284 323 320 345 19 10 356 246 223 207 189 186 189 178 173 178 181 178 176 180 180 155 167 165 101 236 200 211 235 246 263 282 284 276 250 228 229 222 217 178 178 235 220 212 220 188 154 161 162 160 165 168 169 168 170 172 173 177 178
3 3 1 360 359 358 356 354 353 353 349 346 341 333 330 337 353 11 52 37 15 359 360 29 175 165 176 264 273 329 349 344 359 4 1 12 72 184 196 185 185 193 181 165 163 170 177 184 195 207 203 222 180 336 284 180 194 214 220 236 258 260 249 167 192 205 201 193 170 182 250 242 221 212 175 159 165 166 168 172 171 172 171 171 174 177 180 181
2 1 0 359 358 358 357 354 355 355 353 350 340 334 335 350 12 68 62 15 2 360 22 107 154 164 277 270 296 345 5 359 333 340 345 16 66 155 172 175 176 172 164 155 158 160 162 175 195 225 214 289 278 255 225 167 190 195 198 214 222 234 241 230 209 199 195 174 177 192 248 256 240 198 170 165 170 172 175 175 173 176 174 174 177 178 182 184
0 360 359 358 357 357 356 355 358 357 359 353 340 340 347 1 41 118 41 5 358 13 79 125 146 188 281 334 336 336 12 336 320 328 323 309 302 179 162 166 162 157 154 136 157 159 142 165 185 224 224 242 229 222 199 204 210 198 214 220 202 213 236 242 217 213 212 175 179 201 242 270 254 176 168 168 175 178 177 177 178 178 176 177 179 180 183 183
359 358 357 357 357 356 356 356 0 1 5 358 345 356 7 7 97 133 9 358 353 210 241 214 165 199 227 356 343 323 327 318 315 317 309 306 279 172 152 159 155 155 148 108 149 166 163 168 175 207 216 229 216 199 205 214 210 196 211 223 209 212 228 232 194 205 211 195 188 206 236 257 246 154 169 173 177 181 182 181 180 180 180 180 180 181 182 184
359 357 356 356 355 354 356 358 2 4 10 4 352 9 18 22 132 135 347 349 331 209 221 220 201 192 243 338 333 309 309 309 308 303 304 320 190 163 151 158 151 151 153 118 149 172 180 176 179 196 204 215 210 203 205 208 214 200 194 210 215 218 229 226 206 149 184 199 202 206 228 246 234 162 174 180 180 185 188 184 181 181 181 180 182 184 184 186
358 357 355 355 352 353 357 0 6 7 12 13 6 4 23 31 145 183 346 348 353 173 319 308 360 48 285 314 313 304 309 313 312 300 306 77 146 155 146 152 153 157 163 160 167 173 175 175 188 202 205 205 203 206 207 210 353 196 190 214 220 217 232 231 233 270 175 207 216 213 228 241 233 197 184 184 184 190 191 182 181 183 182 183 184 187 187 190
359 357 354 352 350 352 358 3 11 11 14 21 20 7 20 19 339 331 348 344 26 99 307 295 334 258 286 306 307 318 329 337 345 325 352 104 140 145 137 146 157 169 178 174 168 164 175 187 201 208 207 201 199 204 212 238 351 180 187 216 227 227 238 233 235 270 261 240 230 220 231 241 238 216 194 187 187 193 192 182 182 184 184 187 188 190 191 192
359 357 353 350 348 351 1 8 15 16 20 28 33 49 40 20 1 331 340 325 255 248 269 267 265 250 276 292 301 326 345 347 352 9 4 104 147 149 144 152 162 181 188 167 141 141 179 204 214 212 201 190 194 200 212 230 241 247 213 214 230 229 241 258 269 286 279 262 246 229 238 243 241 228 201 184 189 195 193 187 186 187 188 191 191 193 193 189
359 358 352 348 348 354 3 15 19 18 24 35 45 61 95 53 359 297 300 311 285 273 258 264 266 252 274 280 292 327 324 323 348 13 12 60 170 174 160 167 177 182 176 159 142 156 192 221 219 199 175 173 193 199 208 222 230 239 238 232 239 221 253 271 265 272 264 257 256 244 248 251 245 233 206 187 195 202 197 192 189 188 189 192 193 192 189 185
359 358 352 348 352 358 5 29 23 17 25 39 49 56 77 21 346 295 224 292 293 298 272 275 284 285 309 321 347 342 335 357 344 349 1 21 184 194 176 180 184 174 173 179 183 178 194 229 211 169 167 189 196 200 206 216 226 230 229 231 231 200 230 239 207 356 283 251 263 264 262 263 249 228 207 199 205 207 204 201 197 192 191 192 193 190 186 185
358 358 353 350 354 1 11 48 22 14 18 41 62 43 6 337 337 299 207 268 296 298 267 289 288 303 332 334 328 331 348 24 282 334 353 355 209 242 202 188 184 181 184 193 197 196 206 215 162 159 179 196 197 199 203 211 222 224 226 229 228 217 230 243 299 338 306 246 242 257 265 266 240 220 216 207 208 210 207 206 205 202 198 194 193 192 191 189
356 357 355 353 357 6 28 64 19 4 359 67 68 359 338 332 333 228 227 263 231 289 207 248 276 356 334 321 315 328 308 204 240 301 323 329 330 280 214 191 196 198 188 192 201 211 222 165 146 170 185 194 204 207 204 208 220 225 224 226 231 234 238 259 287 308 298 235 191 232 252 255 224 220 222 199 199 210 204 203 209 204 194 194 196 196 196 195
355 357 355 353 0 14 43 81 4 353 354 86 343 334 333 335 325 191 232 274 142 24 28 343 356 359 347 340 334 316 215 151 325 297 318 335 314 241 217 183 199 212 183 183 206 227 218 173 160 183 186 190 204 214 208 203 218 234 215 210 222 237 241 251 264 273 271 260 347 291 252 257 242 226 220 195 197 207 203 207 212 203 195 199 200 197 195 196
353 355 354 353 1 15 41 335 345 355 10 326 330 333 336 336 240 179 237 248 144 10 347 346 343 349 354 343 331 330 178 331 324 327 360 347 319 221 222 191 190 211 164 168 221 215 191 180 174 188 191 193 204 214 205 195 214 236 181 179 204 222 232 241 250 249 260 288 291 268 248 266 266 236 208 200 206 207 204 211 212 203 202 205 204 201 198 196
352 354 352 350 356 13 27 351 346 5 333 325 332 337 337 341 158 169 276 259 304 7 355 352 331 333 339 328 342 20 346 327 331 343 348 344 342 197 225 211 200 203 170 185 218 173 174 192 186 187 198 204 208 216 198 188 213 227 160 171 195 209 223 233 244 247 257 282 270 246 210 250 258 231 167 201 213 212 209 214 211 204 206 206 205 204 200 198
350 353 350 344 350 4 4 359 353 342 334 334 339 340 343 130 151 186 289 241 350 49 54 339 339 334 331 324 9 27 354 352 3 322 334 350 3 330 231 235 234 212 191 206 225 210 184 194 188 192 209 212 210 217 194 188 209 197 159 184 198 205 217 223 235 245 245 248 252 240 207 232 260 236 194 196 207 211 214 218 214 208 209 207 205 205 200 198
349 351 347 343 353 353 347 347 346 343 341 340 344 348 111 145 175 249 216 233 20 42 304 340 347 328 341 358 23 14 6 11 349 326 350 15 8 17 350 290 316 240 215 218 231 239 245 195 187 199 212 205 202 209 195 195 201 168 164 188 193 203 212 216 226 235 241 242 242 238 215 218 261 246 208 200 204 204 208 216 213 210 214 210 207 205 200 198
348 350 347 344 355 355 350 337 341 345 343 342 348 19 150 153 280 204 191 193 109 16 349 11 360 343 7 31 24 2 5 6 355 359 16 16 19 27 15 328 345 264 219 221 228 229 235 217 190 199 206 189 191 205 198 200 197 177 186 193 179 186 193 208 206 199 235 242 227 226 213 210 242 242 199 192 200 203 209 213 208 209 213 211 207 203 201 200
348 350 351 6 1 2 358 336 339 344 341 342 353 126 176 256 218 199 337 168 162 20 42 14 1 2 7 29 22 360 356 6 5 13 24 28 41 39 32 19 349 251 212 216 207 201 225 220 189 194 199 183 188 201 195 197 198 194 198 195 193 188 179 202 201 200 231 240 201 202 199 210 242 252 231 218 218 214 214 215 210 208 211 210 207 203 201 201
349 351 7 27 8 3 353 343 341 340 338 343 7 152 264 220 204 41 18 26 41 30 40 340 355 12 9 26 21 358 357 25 12 7 20 37 53 57 53 30 6 303 232 224 185 193 217 207 193 202 198 186 195 198 195 192 193 200 199 196 202 195 191 206 204 210 230 232 175 169 189 227 252 256 230 230 236 227 215 222 222 211 209 208 206 203 200 198
349 356 77 23 7 359 350 343 338 335 335 340 161 174 216 209 159 62 43 17 32 20 20 353 337 14 43 48 21 359 15 43 21 12 18 33 45 40 30 21 14 354 315 272 194 207 217 206 197 199 193 270 210 210 213 190 184 201 200 202 210 204 211 216 204 215 234 239 181 166 185 226 224 218 206 223 237 227 212 219 221 216 214 210 203 201 199 198
349 4 97 14 3 354 347 338 329 331 331 331 81 141 188 190 61 102 45 4 336 352 19 42 355 22 55 44 24 21 19 23 21 21 32 42 43 28 7 2 8 5 336 270 188 205 234 240 24 273 277 331 221 257 242 197 194 201 195 206 216 207 210 220 224 226 241 261 207 183 217 234 220 312 288 242 246 228 213 214 213 215 213 203 201 199 198 199
351 11 80 3 358 349 345 335 322 327 325 311 71 85 99 90 27 301 15 341 292 5 344 18 35 38 43 28 24 25 10 1 13 15 49 52 45 30 11 348 359 6 7 329 321 24 242 231 31 347 231 140 47 344 289 229 212 180 193 211 204 195 208 222 235 211 226 252 224 197 237 243 270 280 257 233 243 229 217 215 215 217 204 190 198 199 198 199
350 355 339 356 352 347 346 340 325 323 348 68 101 100 105 90 25 324 341 317 275 101 281 332 38 15 22 33 24 16 3 349 6 7 38 47 42 28 6 345 352 358 2 344 308 22 303 264 7 355 184 134 350 316 262 256 243 182 199 198 168 191 217 227 235 209 216 241 215 200 236 233 220 243 226 214 226 231 219 214 219 216 197 193 203 201 200 199
336 330 318 352 348 348 350 350 348 45 112 83 101 101 87 85 48 350 336 316 256 131 142 108 45 346 12 19 23 19 3 353 8 4 10 16 41 38 10 345 344 348 351 337 294 3 317 268 222 99 238 309 336 292 237 234 228 228 211 173 167 205 209 205 228 224 223 237 222 215 240 239 221 221 210 206 215 225 219 212 222 212 192 201 209 203 200 198
327 310 301 350 347 350 356 360 22 82 81 81 102 98 54 51 48 3 343 327 213 121 99 124 49 28 95 11 6 33 13 16 8 348 3 10 16 51 31 356 332 340 347 340 311 323 318 266 200 118 296 307 324 225 223 211 210 226 208 181 195 221 207 201 215 221 224 234 232 225 237 242 227 224 237 222 210 219 218 208 218 211 195 202 209 204 199 196
336 283 57 350 348 353 8 31 52 48 60 82 85 77 43 28 23 4 359 2 13 63 60 128 136 79 106 84 328 48 31 45 13 350 25 15 11 70 36 3 333 334 336 331 318 317 316 275 249 52 286 257 205 174 200 204 200 210 208 204 204 203 201 208 215 215 221 232 229 225 237 243 208 195 229 234 218 217 218 213 217 211 203 204 204 201 196 194
329 228 15 352 351 354 18 53 54 28 71 86 52 46 23 18 16 4 6 15 29 41 35 90 109 90 131 160 123 61 359 156 53 353 36 26 15 68 35 4 337 331 328 320 333 348 340 299 284 305 278 225 180 107 84 330 320 257 238 232 220 218 208 209 216 212 216 232 229 228 249 254 207 165 217 229 227 222 216 215 218 213 209 209 205 201 196 193
333 44 355 353 355 1 41 66 55 24 81 67 28 5 343 5 15 1 6 17 30 37 32 68 80 62 102 280 25 62 360 286 169 300 357 43 353 346 27 1 332 324 323 311 319 333 321 294 278 281 267 263 277 312 319 271 237 212 273 343 340 309 234 216 224 211 209 223 223 235 256 259 197 185 227 234 236 243 240 230 229 223 211 206 206 205 200 196
1 306 346 358 2 11 69 68 67 42 63 31 3 359 348 19 22 8 18 22 19 22 39 63 51 37 59 5 359 59 1 334 199 265 312 295 323 341 19 353 336 326 324 322 325 326 309 271 263 274 266 271 273 325 66 106 147 145 95 20 15 5 353 285 267 292 230 217 210 224 246 250 200 191 241 258 254 259 273 267 255 253 244 219 213 209 203 199
342 266 321 6 19 48 87 61 65 56 50 22 36 49 38 47 36 20 23 25 15 2 38 57 37 27 32 358 358 36 4 342 238 247 302 292 302 96 302 335 338 331 329 344 350 338 315 259 261 269 221 208 195 158 137 114 97 92 60 24 13 359 341 302 255 277 264 215 212 223 238 249 227 175 220 248 250 247 252 250 245 256 266 262 240 223 215 206
321 242 248 7 29 51 71 52 52 69 47 27 50 45 26 52 44 20 20 31 20 5 31 56 46 38 28 6 24 54 28 9 343 298 300 302 293 266 262 292 322 324 316 331 340 324 296 278 278 265 219 200 187 184 193 144 25 353 286 299 334 354 341 322 255 232 232 211 219 229 239 250 240 180 214 235 244 249 243 229 221 234 247 253 247 224 218 216
329 19 328 352 30 52 73 63 41 54 48 29 58 46 23 34 31 9 19 36 21 16 42 50 34 31 25 17 23 38 28 18 357 324 285 285 288 314 307 286 301 305 298 315 336 322 279 270 265 266 266 264 289 59 349 315 307 300 307 306 316 347 334 322 260 227 267 295 238 222 242 258 247 210 214 226 242 254 248 218 212 217 223 233 235 215 200 201
2 20 360 345 4 36 63 60 37 36 35 6 43 43 27 28 18 5 23 33 12 10 41 61 44 35 27 18 8 2 354 334 326 308 282 280 289 308 314 301 290 289 289 310 336 323 276 262 261 261 267 277 297 317 295 286 285 286 295 299 302 303 288 249 240 258 327 303 248 220 287 264 258 256 255 260 268 275 282 271 253 255 253 255 269 262 225 203
16 90 34 325 335 18 26 21 18 22 28 45 66 41 27 32 26 10 7 5 8 11 8 72 52 37 26 14 341 297 315 308 295 287 290 306 313 315 318 310 290 282 282 299 331 331 280 265 272 274 273 276 281 285 276 269 269 271 276 282 288 285 266 247 252 259 266 256 267 307 298 276 302 312 314 327 327 315 312 314 318 315 307 304 299 291 277 245
24 88 67 331 21 40 14 357 357 10 30 51 65 40 23 23 20 7 337 321 354 29 20 4 18 10 1 357 322 270 280 293 284 280 306 314 311 311 311 304 297 277 266 285 324 335 284 272 301 300 286 280 273 262 257 262 266 265 264 267 274 275 267 261 260 260 255 243 246 269 277 282 295 303 318 325 319 313 310 314 324 321 315 314 292 274 271 263
20 59 23 354 51 57 27 9 360 25 43 34 37 35 18 16 15 359 326 300 311 29 22 358 350 342 333 327 274 255 267 289 287 280 291 300 298 294 286 288 290 252 263 289 319 331 290 295 339 331 297 279 270 253 243 250 259 265 268 269 268 263 254 250 261 276 268 248 245 257 268 275 291 320 326 313 304 305 305 310 324 328 329 322 296 274 264 257
8 17 4 353 49 44 36 31 12 25 53 31 23 23 6 17 13 347 319 276 268 323 349 344 338 329 314 290 264 264 275 285 280 275 276 277 273 266 258 264 268 275 282 281 287 298 287 297 324 326 295 281 275 245 238 248 260 264 264 261 251 241 223 208 245 355 349 273 268 265 262 275 325 337 324 306 295 296 308 328 332 325 322 312 293 282 270 259
357 11 7 348 48 39 30 37 30 37 60 30 11 4 342 351 358 344 339 359 296 308 324 330 328 322 300 286 294 311 311 295 284 279 274 264 258 256 252 252 255 260 264 264 268 270 267 285 309 300 280 282 279 261 265 264 263 259 252 239 223 209 181 166 140 46 24 324 283 271 286 330 331 325 318 307 297 298 324 339 326 316 315 305 292 287 281 273